Weather History for KTCL - June, 2013

Change the Weather History Date:

Monday, June 17, 2013

  Actual Average Record
Temperature  
Mean Temperature 80 °F 79 °F  
Max Temperature 89 °F 90 °F 102 °F (1952)
Min Temperature 71 °F 68 °F 54 °F (1974)
Cooling Degree Days 15    
Growing Degree Days 30 (Base 50)    
Moisture  
Dew Point 72 °F    
Average Humidity 79    
Maximum Humidity 94    
Minimum Humidity 63    
Precipitation  
Precipitation 0.13 in 0.16 in 0.86 in (1956)
Month to date precipitation 4.38 2.59  
Year to date precipitation 26.34 25.99  
Sea Level Pressure  
Sea Level Pressure 29.97 in    
Wind  
Wind Speed 3 mph (SE)    
Max Wind Speed 17 mph    
Max Gust Speed 23 mph    
Visibility 7 miles    
Events Rain , Thunderstorm    
T = Trace of Precipitation, MM = Missing Value Source: NWS Daily Summary

Daily Weather History Graph

Daily Weather History Graph

Search for Another Location

Airport or City:

Trip Planner

Search our weather history database for the weather conditions in past years. The results will help you decide how hot, cold, wet, or windy it might be!

Date:

Astronomy

Jun. 17, 2013 Rise Set
Actual Time 5:41 AM CDT 8:01 PM CDT
Civil Twilight 5:12 AM CDT 8:30 PM CDT
Nautical Twilight 4:36 AM CDT 9:06 PM CDT
Astronomical Twilight 3:58 AM CDT 9:44 PM CDT
Moon 1:55 PM CDT (6/17) 12:59 AM CDT (6/17)
Length of Visible Light 15h 18m
Length of Day
14h 20m
First Quarter, 60% of the Moon is Illuminated
Jun 17
First Quarter
Jun 23
Full
Jun 29
Last Quarter
Jul 8
New
Jul 15
First Quarter

Hourly Weather History & Observations

Time (CDT) Temp. Heat Index Dew Point Humidity Pressure Visibility Wind Dir Wind Speed Gust Speed Precip Events Conditions
12:53 AM 77.0 °F - 73.9 °F 90% 29.99 in 5.0 mi Calm Calm - N/A   Clear
1:53 AM 77.0 °F - 73.9 °F 90% 29.99 in 5.0 mi Calm Calm - N/A   Clear
2:53 AM 75.9 °F - 73.9 °F 94% 29.99 in 4.0 mi Calm Calm - N/A   Clear
3:53 AM 75.9 °F - 73.9 °F 94% 29.99 in 4.0 mi Calm Calm - N/A   Clear
4:44 AM 73.4 °F - 73.4 °F 100% 29.99 in 1.8 mi Calm Calm - N/A   Clear
4:53 AM 73.9 °F - 72.0 °F 93% 29.98 in 1.2 mi Calm Calm - N/A   Clear
5:03 AM 73.4 °F - 71.6 °F 94% 29.99 in 2.5 mi Calm Calm - N/A   Clear
5:10 AM 73.4 °F - 71.6 °F 94% 29.99 in 4.0 mi Calm Calm - N/A   Clear
5:53 AM 75.0 °F - 72.0 °F 90% 29.99 in 2.5 mi Calm Calm - N/A   Clear
6:19 AM 75.2 °F - 73.4 °F 94% 29.99 in 3.0 mi Calm Calm - N/A   Clear
6:53 AM 78.1 °F - 73.9 °F 87% 29.98 in 4.0 mi South 3.5 mph - N/A   Clear
7:23 AM 78.8 °F - 75.2 °F 89% 29.98 in 5.0 mi SE 3.5 mph - N/A   Partly Cloudy
7:53 AM 80.1 °F 85.1 °F 75.0 °F 85% 29.98 in 6.0 mi South 4.6 mph - N/A   Haze
8:53 AM 82.0 °F 88.6 °F 75.0 °F 79% 29.99 in 6.0 mi Calm Calm - N/A   Haze
9:53 AM 86.0 °F 95.1 °F 75.0 °F 70% 29.99 in 7.0 mi SW 4.6 mph - N/A   Clear
10:53 AM 87.1 °F 95.4 °F 73.9 °F 65% 29.99 in 7.0 mi Calm Calm - N/A   Partly Cloudy
11:53 AM 88.0 °F 96.5 °F 73.9 °F 63% 29.98 in 8.0 mi Calm Calm - N/A   Scattered Clouds
12:03 PM 87.8 °F 95.6 °F 73.4 °F 62% 29.98 in 8.0 mi Calm Calm - N/A Thunderstorm Mostly Cloudy
12:53 PM 78.1 °F - 73.9 °F 87% 29.98 in 7.0 mi ENE 3.5 mph - 0.00 in Rain , Thunderstorm Light Thunderstorms and Rain
1:17 PM 78.8 °F - 71.6 °F 78% 29.96 in 9.0 mi NE 4.6 mph - 0.00 in   Scattered Clouds
1:53 PM 82.0 °F 87.4 °F 73.0 °F 74% 29.97 in 8.0 mi North 6.9 mph - 0.00 in   Clear
2:53 PM 84.9 °F 91.4 °F 73.0 °F 67% 29.93 in 9.0 mi East 4.6 mph - N/A   Clear
3:53 PM 79.0 °F - 68.0 °F 69% 29.96 in 10.0 mi South 8.1 mph - N/A   Partly Cloudy
4:53 PM 75.0 °F - 71.1 °F 87% 29.97 in 9.0 mi South 8.1 mph - 0.00 in Rain Light Rain
5:00 PM 75.2 °F - 71.6 °F 89% 29.98 in 6.0 mi SSW 4.6 mph - 0.01 in Rain , Thunderstorm Light Thunderstorms and Rain
5:29 PM 73.4 °F - 71.6 °F 94% 29.97 in 9.0 mi Calm Calm - 0.02 in Rain Light Rain
5:53 PM 73.9 °F - 72.0 °F 93% 29.94 in 10.0 mi SE 3.5 mph - 0.02 in   Clear
6:53 PM 73.9 °F - 71.1 °F 91% 29.94 in 10.0 mi East 3.5 mph - N/A   Clear
7:53 PM 73.0 °F - 69.1 °F 87% 29.94 in 10.0 mi SE 5.8 mph - N/A   Clear
8:53 PM 73.0 °F - 68.0 °F 84% 29.93 in 10.0 mi SE 5.8 mph - N/A   Clear
9:53 PM 72.0 °F - 68.0 °F 87% 29.96 in 10.0 mi South 6.9 mph - N/A   Scattered Clouds
10:53 PM 72.0 °F - 68.0 °F 87% 29.95 in 10.0 mi ESE 6.9 mph - N/A   Mostly Cloudy
11:53 PM 71.1 °F - 68.0 °F 90% 29.93 in 10.0 mi Calm Calm - N/A   Partly Cloudy